Flag for Switzerland Weather past 2 weeks in Davos, Graubünden, Switzerland

Now
35 °F

Chilly.


Feels Like: 35 °F
Forecast: 6 / 20 °F
Wind: 2 mph from Northeast

Location: Chur-Ems

Current Time: Dec 26, 2014 at 1:23:36 PM

Latest Report: Dec 26, 2014 at 12:00 PM


Visibility: N/A

Pressure: 30.45 "Hg

Humidity: 91%

Dew point: 32 °F

Location of DavosLocation

Historic Weather in Davos — Graph

°F

Davos temperature yesterday

Maximum temperature yesterday: 42 °F (at 3:00 PM)
Minimum temperature yesterday: 32 °F (at 12:00 AM)
Average temperature yesterday: 38 °F

Past Weeks' High & Low Weather Summary

 TemperatureHumidityPressure
High57 °F (Dec 13, 2:00 PM)97% (Dec 16, 8:00 AM)30.62 "Hg (Dec 16, 8:00 AM)
Low31 °F (Dec 22, 7:00 AM)30% (Dec 12, 3:00 PM)29.90 "Hg (Dec 17, 2:00 PM)
Average41 °F72%30.23 "Hg
* Reported Dec 11 12:00 Noon — Dec 26 12:00 Noon, Davos, Weather by CustomWeather, © 2014

Note: Actual official high and low records may vary slightly from our data, if they occured in-between our weather recording intervals... More about our weather records

Advertising

Davos weather history for previous 24 hours

 ConditionsComfort  
Time TempWeatherWind HumidityBarometerVisibility
12:00 PM
Dec 26
35 °FChilly.2 mph91%30.45 "HgN/A
11:00 AM33 °FChilly.No wind92%30.47 "HgN/A
10:00 AM33 °FLight snow. Low clouds.2 mph92%30.47 "Hg1 mi
9:00 AM32 °FChilly.1 mph94%30.46 "HgN/A
8:00 AM33 °FChilly.2 mph93%30.46 "HgN/A
7:00 AM33 °FLight snow. Overcast.2 mph88%30.45 "Hg4 mi
6:00 AM33 °FChilly.5 mph90%30.44 "HgN/A
5:00 AM31 °FChilly.2 mph93%30.45 "HgN/A
4:00 AM32 °FFog.3 mph93%30.45 "Hg9 mi
3:00 AM33 °FChilly.3 mph91%30.46 "HgN/A
2:00 AM33 °FChilly.8 mph90%30.45 "HgN/A
1:00 AM33 °FLight rain. Low clouds.10 mph94%30.45 "Hg3 mi
12:00 AM37 °FChilly.10 mph65%30.43 "HgN/A
11:00 PM
Dec 25
38 °FChilly.10 mph61%30.42 "HgN/A
10:00 PM38 °FFog.17 mph66%30.41 "Hg3 mi
9:00 PM39 °FChilly.15 mph61%30.40 "HgN/A
8:00 PM40 °FChilly.17 mph60%30.38 "HgN/A
7:00 PM40 °FFog.14 mph68%30.36 "Hg3 mi
6:00 PM41 °FQuite cool.13 mph69%30.33 "HgN/A
5:00 PM40 °FQuite cool.14 mph80%30.32 "HgN/A
4:00 PM41 °FFog.12 mph86%30.32 "Hg3 mi
3:00 PM42 °FQuite cool.13 mph85%30.29 "HgN/A
2:00 PM40 °FChilly.7 mph86%30.32 "HgN/A
1:00 PM38 °FDrizzle. Low clouds.7 mph88%30.34 "Hg5 mi
Weather by CustomWeather, © 2014

See weather overviewHow to use our weather pages